When you browse on this site, cookies collect data to enhance your experience and personalize the content and advertising you see.
Visit our Privacy Policy to learn more. By continuing to use the site, you agree to this use of cookies and data.
  • în România
  • Lista ţărilor
  • Pe 7 zile
  • Temperatura apei
  • Meteo pe hartă
  • Widget-uri
  • user-avatar
    Intrare

    Meteo pe oră la Matrah

    Astăzi, 25 Mai, Luni

    Timp Temperatura Precipitaţii Vânt Presiune Umiditate
    00:00 +36°C° 0 mm 2 m/s 753 mmHg 49%
    01:00 +36°C° 0 mm 2 m/s 753 mmHg 52%
    02:00 +34°C° 0 mm 1 m/s 753 mmHg 55%
    03:00 +33°C° 0 mm 1 m/s 753 mmHg 59%
    04:00 +32°C° 0 mm 1 m/s 753 mmHg 62%
    05:00 +33°C° 0 mm 1 m/s 753 mmHg 59%
    06:00 +34°C° 0 mm 1 m/s 754 mmHg 56%
    07:00 +34°C° 0 mm 1 m/s 755 mmHg 53%
    08:00 +37°C° 0 mm 2 m/s 755 mmHg 49%
    09:00 +38°C° 0 mm 3 m/s 755 mmHg 45%
    10:00 +40°C° 0 mm 4 m/s 755 mmHg 41%
    11:00 +41°C° 0 mm 4 m/s 754 mmHg 40%
    12:00 +41°C° 0 mm 4 m/s 754 mmHg 38%
    13:00 +42°C° 0 mm 4 m/s 754 mmHg 37%
    14:00 +40°C° 0 mm 3 m/s 754 mmHg 37%
    15:00 +40°C° 0 mm 3 m/s 753 mmHg 37%
    16:00 +39°C° 0 mm 2 m/s 752 mmHg 38%
    17:00 +38°C° 0 mm 2 m/s 753 mmHg 41%
    18:00 +36°C° 0 mm 1 m/s 753 mmHg 43%
    19:00 +36°C° 0 mm 1 m/s 753 mmHg 46%
    20:00 +35°C° 0 mm 1 m/s 753 mmHg 46%
    21:00 +35°C° 0 mm 1 m/s 754 mmHg 45%
    22:00 +35°C° 0 mm 1 m/s 754 mmHg 44%
    23:00 +35°C° 0 mm 1 m/s 754 mmHg 44%

    Mâine, 26 Mai, Marţi

    Timp Temperatura Precipitaţii Vânt Presiune Umiditate
    00:00 +35°C° 0 mm 1 m/s 754 mmHg 44%
    01:00 +35°C° 0 mm 1 m/s 754 mmHg 44%
    02:00 +35°C° 0 mm 2 m/s 753 mmHg 46%
    03:00 +35°C° 0 mm 2 m/s 753 mmHg 47%
    04:00 +35°C° 0 mm 3 m/s 753 mmHg 48%
    05:00 +35°C° 0 mm 3 m/s 753 mmHg 45%
    06:00 +36°C° 0 mm 2 m/s 754 mmHg 41%
    07:00 +37°C° 0 mm 2 m/s 754 mmHg 38%
    08:00 +38°C° 0 mm 2 m/s 754 mmHg 34%
    09:00 +40°C° 0 mm 2 m/s 754 mmHg 29%
    10:00 +42°C° 0 mm 2 m/s 755 mmHg 24%
    11:00 +43°C° 0 mm 3 m/s 754 mmHg 25%
    12:00 +43°C° 0 mm 4 m/s 754 mmHg 26%
    13:00 +43°C° 0 mm 5 m/s 753 mmHg 28%
    14:00 +43°C° 0 mm 4 m/s 753 mmHg 28%
    15:00 +42°C° 0 mm 4 m/s 753 mmHg 27%
    16:00 +42°C° 0 mm 4 m/s 752 mmHg 27%
    17:00 +40°C° 0 mm 3 m/s 752 mmHg 29%
    18:00 +39°C° 0 mm 2 m/s 753 mmHg 30%
    19:00 +39°C° 0 mm 2 m/s 753 mmHg 31%
    20:00 +39°C° 0 mm 2 m/s 753 mmHg 31%
    21:00 +38°C° 0 mm 2 m/s 754 mmHg 31%
    22:00 +37°C° 0 mm 1 m/s 754 mmHg 30%
    23:00 +38°C° 0 mm 2 m/s 754 mmHg 34%

    Poimâine, 27 Mai, Miercuri

    Timp Temperatura Precipitaţii Vânt Presiune Umiditate
    00:00 +37°C° 0 mm 2 m/s 753 mmHg 37%
    01:00 +37°C° 0 mm 3 m/s 753 mmHg 41%
    02:00 +36°C° 0 mm 3 m/s 753 mmHg 41%
    03:00 +36°C° 0 mm 3 m/s 753 mmHg 42%
    04:00 +35°C° 0 mm 3 m/s 753 mmHg 42%
    05:00 +36°C° 0 mm 3 m/s 753 mmHg 38%
    06:00 +37°C° 0 mm 3 m/s 753 mmHg 34%
    07:00 +38°C° 0 mm 3 m/s 754 mmHg 30%
    08:00 +39°C° 0 mm 2 m/s 754 mmHg 27%
    09:00 +41°C° 0 mm 2 m/s 754 mmHg 25%
    10:00 +42°C° 0 mm 1 m/s 754 mmHg 23%
    11:00 +43°C° 0 mm 2 m/s 753 mmHg 22%
    12:00 +44°C° 0 mm 3 m/s 753 mmHg 21%
    13:00 +45°C° 0 mm 4 m/s 752 mmHg 21%
    14:00 +45°C° 0 mm 4 m/s 752 mmHg 21%
    15:00 +44°C° 0 mm 4 m/s 751 mmHg 22%
    16:00 +44°C° 0 mm 4 m/s 751 mmHg 23%
    17:00 +43°C° 0 mm 3 m/s 751 mmHg 24%
    18:00 +41°C° 0 mm 2 m/s 751 mmHg 24%
    19:00 +40°C° 0 mm 2 m/s 751 mmHg 25%
    20:00 +40°C° 0 mm 2 m/s 752 mmHg 25%
    21:00 +40°C° 0 mm 2 m/s 752 mmHg 25%
    22:00 +39°C° 0 mm 2 m/s 752 mmHg 25%
    23:00 +38°C° 0 mm 3 m/s 752 mmHg 31%

    28 Mai, Joi

    Timp Temperatura Precipitaţii Vânt Presiune Umiditate
    00:00 +37°C° 0 mm 3 m/s 751 mmHg 38%
    01:00 +36°C° 0 mm 3 m/s 751 mmHg 44%
    02:00 +35°C° 0 mm 3 m/s 751 mmHg 43%
    03:00 +35°C° 0 mm 4 m/s 751 mmHg 43%
    04:00 +35°C° 0 mm 4 m/s 751 mmHg 42%
    05:00 +36°C° 0 mm 4 m/s 751 mmHg 40%
    06:00 +37°C° 0 mm 4 m/s 752 mmHg 39%
    07:00 +37°C° 0 mm 4 m/s 752 mmHg 37%
    08:00 +40°C° 0 mm 5 m/s 752 mmHg 32%
    09:00 +43°C° 0 mm 5 m/s 752 mmHg 27%
    10:00 +46°C° 0 mm 6 m/s 752 mmHg 21%
    11:00 +45°C° 0 mm 6 m/s 751 mmHg 22%
    12:00 +45°C° 0 mm 6 m/s 751 mmHg 22%
    13:00 +45°C° 0 mm 6 m/s 750 mmHg 23%
    14:00 +45°C° 0 mm 5 m/s 750 mmHg 21%
    15:00 +44°C° 0 mm 4 m/s 749 mmHg 20%
    16:00 +44°C° 0 mm 3 m/s 749 mmHg 18%
    17:00 +42°C° 0 mm 2 m/s 749 mmHg 19%
    18:00 +40°C° 0 mm 2 m/s 749 mmHg 19%
    19:00 +39°C° 0 mm 1 m/s 749 mmHg 20%
    20:00 +39°C° 0 mm 2 m/s 750 mmHg 19%
    21:00 +40°C° 0 mm 2 m/s 750 mmHg 18%
    22:00 +41°C° 0 mm 2 m/s 751 mmHg 18%
    23:00 +39°C° 0 mm 2 m/s 750 mmHg 24%

    29 Mai, Vineri

    Timp Temperatura Precipitaţii Vânt Presiune Umiditate
    00:00 +37°C° 0 mm 1 m/s 750 mmHg 31%
    01:00 +36°C° 0 mm 1 m/s 750 mmHg 38%
    02:00 +35°C° 0 mm 1 m/s 750 mmHg 42%
    03:00 +35°C° 0 mm 1 m/s 750 mmHg 47%
    04:00 +35°C° 0 mm 2 m/s 750 mmHg 52%
    05:00 +36°C° 0 mm 2 m/s 750 mmHg 49%
    06:00 +37°C° 0 mm 2 m/s 750 mmHg 46%
    07:00 +38°C° 0 mm 2 m/s 750 mmHg 43%
    08:00 +40°C° 0 mm 3 m/s 751 mmHg 34%
    09:00 +43°C° 0 mm 4 m/s 751 mmHg 26%
    10:00 +46°C° 0 mm 5 m/s 751 mmHg 17%
    11:00 +46°C° 0 mm 5 m/s 750 mmHg 18%
    12:00 +46°C° 0 mm 5 m/s 750 mmHg 19%
    13:00 +46°C° 0 mm 5 m/s 749 mmHg 20%
    14:00 +45°C° 0 mm 4 m/s 749 mmHg 20%
    15:00 +45°C° 0 mm 3 m/s 749 mmHg 19%
    16:00 +43°C° 0 mm 2 m/s 748 mmHg 19%
    17:00 +42°C° 0 mm 2 m/s 749 mmHg 20%
    18:00 +41°C° 0 mm 1 m/s 749 mmHg 21%
    19:00 +40°C° 0 mm 1 m/s 749 mmHg 22%
    20:00 +40°C° 0 mm 2 m/s 749 mmHg 22%
    21:00 +40°C° 0 mm 3 m/s 749 mmHg 22%
    22:00 +41°C° 0 mm 4 m/s 750 mmHg 21%
    23:00 +41°C° 0 mm 4 m/s 750 mmHg 22%

    30 Mai, Sâmbătă

    Timp Temperatura Precipitaţii Vânt Presiune Umiditate
    00:00 +40°C° 0 mm 4 m/s 749 mmHg 23%
    01:00 +40°C° 0 mm 4 m/s 749 mmHg 24%
    02:00 +38°C° 0 mm 4 m/s 749 mmHg 27%
    03:00 +37°C° 0 mm 4 m/s 749 mmHg 30%
    04:00 +37°C° 0 mm 3 m/s 749 mmHg 33%
    05:00 +37°C° 0 mm 3 m/s 749 mmHg 32%
    06:00 +38°C° 0 mm 3 m/s 750 mmHg 31%
    07:00 +39°C° 0 mm 3 m/s 750 mmHg 29%
    08:00 +40°C° 0 mm 3 m/s 750 mmHg 27%
    09:00 +42°C° 0 mm 3 m/s 751 mmHg 25%
    10:00 +44°C° 0 mm 4 m/s 751 mmHg 23%
    11:00 +44°C° 0 mm 4 m/s 750 mmHg 24%
    12:00 +46°C° 0 mm 5 m/s 750 mmHg 24%
    13:00 +46°C° 0 mm 5 m/s 750 mmHg 24%
    14:00 +45°C° 0 mm 5 m/s 749 mmHg 25%
    15:00 +44°C° 0 mm 4 m/s 749 mmHg 26%
    16:00 +43°C° 0 mm 4 m/s 749 mmHg 26%
    17:00 +42°C° 0 mm 3 m/s 749 mmHg 27%
    18:00 +40°C° 0 mm 3 m/s 749 mmHg 29%
    19:00 +39°C° 0 mm 2 m/s 749 mmHg 30%
    20:00 +39°C° 0 mm 3 m/s 750 mmHg 28%
    21:00 +40°C° 0 mm 3 m/s 750 mmHg 26%
    22:00 +41°C° 0 mm 4 m/s 751 mmHg 25%
    23:00 +40°C° 0 mm 4 m/s 751 mmHg 31%
    Arată mai mult